Station VENF1 - Venice, FL Image indicating link to RSS feed of recent meteorological observations for station VENF1


Conditions at VENF1 as of
(1:00 am EDT)
0500 GMT on 07/19/2024:
     

Click on the graph icon in the table below to see a time series plot of the last five days of that observation.

5-day plot - Wind Direction Wind Direction (WDIR):ESE ( 120 deg true )
5-day plot - Wind Speed Wind Speed (WSPD): 5 kts
5-day plot - Wind Gust Wind Gust (GST): 6 kts
5-day plot - Atmospheric Pressure Atmospheric Pressure (PRES):30.06 in
5-day plot - Pressure Tendency Pressure Tendency (PTDY):+0.00 in ( Steady )
5-day plot - Air Temperature Air Temperature (ATMP): 80.1 °F
5-day plot - Water Temperature Water Temperature (WTMP): 88.2 °F
5-day plot - Dew Point Dew Point (DEWP): 74.7 °F
5-day plot - Heat Index Heat Index (HEAT): 84.9 °F
5-day plot - Wind Speed at 10 Meters Wind Speed at 10 meters (WSPD10M): 6 kts
5-day plot - Wind Speed at 20 Meters Wind Speed at 20 meters (WSPD20M): 6 kts
5-day plot -  Wind Speed, Wind Gust and Atmospheric Pressure Combined plot of Wind Speed, Gust, and Air Pressure
Continuous Winds
TIME
(EDT)
5-day plot - Wind Direction WDIR 5-day plot - Wind Speed WSPD
1:00 amSE ( 125 deg ) 5 kts
12:50 amESE ( 112 deg ) 4 kts
12:40 amESE ( 113 deg ) 4 kts
12:30 amSE ( 125 deg ) 5 kts
12:20 amESE ( 122 deg ) 4 kts
12:10 amSE ( 128 deg ) 7 kts
 
Peak gust during the measurement hour
TIME
(EDT)
5-day plot - Gust Direction GDR 5-day plot - Gust Speed GST
12:01 amSE ( 130 deg ) 9 kts
Previous observations
TIME
(EDT)
5-day plot - Wind Direction
WDIR
 
5-day plot - Wind Speed
WSPD
kts
5-day plot - Wind Gust
GST
kts
5-day plot - Wave Height
WVHT
ft
5-day plot - Dominant Wave Period
DPD
sec
5-day plot - Average Wave Period
APD
sec
5-day plot - Mean Wave Direction
MWD
 
5-day plot - Atmospheric Pressure
PRES
in
5-day plot - Pressure Tendency
PTDY
in
5-day plot - Air Temperature
ATMP
°F
5-day plot - Water Temperature
WTMP
°F
5-day plot - Dew Point
DEWP
°F
5-day plot - Salinity
SAL
psu
5-day plot - Visibility
VIS
nmi
5-day plot - Tide (above MLLW)
TIDE
ft
2024-07-19 12:00 am SE 7 8----30.08+0.03 79.9 88.2 74.3---
2024-07-18 11:00 pm E 6 8----30.08+0.06 80.1 88.2 74.8---
2024-07-18 10:00 pm E 7 8----30.05+0.04 80.6 88.2 74.1---
2024-07-18 09:00 pm NE 6 7----30.05+0.00 83.1 88.2 73.6---
2024-07-18 08:00 pmSSW 3 4----30.02-0.01 84.0 88.0 74.3---
2024-07-18 07:00 pmESE 8 10----30.02-0.01 82.8 88.0 72.7---
2024-07-18 06:00 pmESE 15 18----30.04+0.00 82.2 88.0 72.5---
2024-07-18 05:00 pm W 7 8----30.03-0.02 88.3 88.0 78.6---
2024-07-18 04:00 pm W 9 10----30.03-0.04 87.6 87.8 77.9---
2024-07-18 03:00 pm W 8 9----30.03-0.05 87.4 87.8 78.4---
2024-07-18 02:00 pm SW 8 9----30.05-0.04 86.4 87.8 78.6---
2024-07-18 01:00 pmWSW 8 8----30.07-0.01 86.5 87.8 78.8---
2024-07-18 12:00 pmSSW 6 7----30.09+0.01 86.0 87.8 79.2---
2024-07-18 11:00 am S 8 9----30.09+0.04 85.6 87.8 77.0---
2024-07-18 10:00 amSSE 7 8----30.08+0.06 84.9 87.8 79.0---
2024-07-18 09:00 amESE 6 8----30.07+0.06 83.1 87.8 78.8---
2024-07-18 08:00 amENE 3 5----30.05+0.04 80.4 87.8 78.6---
2024-07-18 07:00 am E 6 6----30.03+0.02 78.4 87.8 77.2---
2024-07-18 06:00 am E 6 9----30.01-0.01 79.2 87.8 77.4---
2024-07-18 05:00 am E 4 5----30.01-0.03 79.2 87.8 77.5---
2024-07-18 04:00 am E 4 5----30.01-0.05 79.2 87.8 77.7---
2024-07-18 03:00 am E 4 5----30.02-0.04 80.2 87.8 77.7---
2024-07-18 02:00 am NE 2 3----30.04-0.02 80.8 87.8 77.7---
2024-07-18 01:00 am E 4 5----30.06+0.00 81.1 87.8 77.2---